LAN1498 VNKT-VGHS

Flight info

Callsign LAN1498
Flight time 0h 57m
Altitude 35000
Route IGRIS1C AHALE R344 RAJ G463 OLPAS
Aircraft A320/M-SDE3FGHIRWY/LB1

Departure

Time 2026-04-23 01:32
Airport Tribhuvan International Airport (VNKT)

Arrival

Time 2026-04-23 02:30
Airport Hazrat Shahjalal International Airport (VGHS)
Time Latitude Longitude Altitude Speed Heading
2026-04-23 01:18 27.69817 85.35756 4398 ft 0 kts 291°
2026-04-23 01:23 27.69814 85.35765 4398 ft 2 kts 290°
2026-04-23 01:24 27.69809 85.35779 4398 ft 2 kts 291°
2026-04-23 01:24 27.69804 85.35794 4398 ft 2 kts 291°
2026-04-23 01:24 27.69800 85.35808 4398 ft 2 kts 289°
2026-04-23 01:24 27.69795 85.35823 4398 ft 2 kts 286°
2026-04-23 01:25 27.69792 85.35836 4398 ft 2 kts 277°
2026-04-23 01:25 27.69791 85.35848 4398 ft 1 kts 249°
2026-04-23 01:25 27.69794 85.35856 4398 ft 1 kts 214°
2026-04-23 01:25 27.69799 85.35860 4397 ft 1 kts 202°
2026-04-23 01:26 27.69802 85.35861 4397 ft 0 kts 200°
2026-04-23 01:26 27.69806 85.35863 4397 ft 1 kts 199°
2026-04-23 01:27 27.69731 85.35833 4397 ft 21 kts 200°
2026-04-23 01:27 27.69632 85.35787 4398 ft 23 kts 204°
2026-04-23 01:27 27.69573 85.35758 4398 ft 5 kts 203°
2026-04-23 01:27 27.69545 85.35745 4398 ft 5 kts 203°
2026-04-23 01:28 27.69491 85.35719 4396 ft 12 kts 202°
2026-04-23 01:28 27.69391 85.35673 4394 ft 17 kts 201°
2026-04-23 01:28 27.69274 85.35622 4393 ft 19 kts 201°
2026-04-23 01:28 27.69154 85.35567 4388 ft 17 kts 203°
2026-04-23 01:29 27.69094 85.35560 4388 ft 1 kts 162°
2026-04-23 01:29 27.69087 85.35564 4389 ft 3 kts 151°
2026-04-23 01:29 27.69063 85.35599 4390 ft 8 kts 131°
2026-04-23 01:29 27.68991 85.35607 4391 ft 14 kts 196°
2026-04-23 01:30 27.68878 85.35556 4392 ft 21 kts 202°
2026-04-23 01:30 27.68722 85.35487 4388 ft 27 kts 201°
2026-04-23 01:30 27.68541 85.35403 4395 ft 21 kts 204°
2026-04-23 01:30 27.68442 85.35318 4396 ft 19 kts 202°
2026-04-23 01:31 27.68432 85.35361 4412 ft 13 kts
2026-04-23 01:31 27.68538 85.35402 4395 ft 23 kts 21°
2026-04-23 01:31 27.68922 85.35580 4392 ft 96 kts 22°
2026-04-23 01:31 27.69734 85.35950 4396 ft 153 kts 22°
2026-04-23 01:32 27.70823 85.36461 4757 ft 175 kts 24°
2026-04-23 01:32 27.71949 85.36984 5539 ft 175 kts 23°
2026-04-23 01:32 27.73001 85.37735 5911 ft 191 kts 45°
2026-04-23 01:32 27.73781 85.39000 6112 ft 211 kts 68°
2026-04-23 01:33 27.74060 85.40695 6316 ft 234 kts 92°
2026-04-23 01:33 27.73789 85.42590 6675 ft 250 kts 99°
2026-04-23 01:33 27.73404 85.44491 7467 ft 246 kts 110°
2026-04-23 01:33 27.72585 85.46173 8219 ft 249 kts 133°
2026-04-23 01:34 27.71122 85.47217 8853 ft 255 kts 166°
2026-04-23 01:34 27.69336 85.47280 9448 ft 263 kts 191°
2026-04-23 01:34 27.67548 85.46677 9996 ft 272 kts 206°
2026-04-23 01:34 27.65942 85.45552 10611 ft 274 kts 223°
2026-04-23 01:35 27.64684 85.43939 11252 ft 276 kts 240°
2026-04-23 01:35 27.63919 85.41960 11904 ft 276 kts 258°
2026-04-23 01:35 27.63722 85.39811 12566 ft 277 kts 272°
2026-04-23 01:35 27.63740 85.37623 13240 ft 280 kts 272°
2026-04-23 01:36 27.63752 85.35419 13885 ft 283 kts 272°
2026-04-23 01:36 27.63960 85.33203 14437 ft 285 kts 287°
2026-04-23 01:36 27.64747 85.31149 14960 ft 287 kts 303°
2026-04-23 01:36 27.66038 85.29431 15512 ft 290 kts 319°
2026-04-23 01:37 27.67744 85.28184 15947 ft 300 kts 335°
2026-04-23 01:37 27.69828 85.27560 16069 ft 321 kts 355°
2026-04-23 01:37 27.72111 85.27782 16200 ft 341 kts 15°
2026-04-23 01:37 27.74283 85.28938 16343 ft 358 kts 36°
2026-04-23 01:38 27.76015 85.30996 16741 ft 368 kts 57°
2026-04-23 01:38 27.76981 85.33674 17228 ft 374 kts 79°
2026-04-23 01:38 27.76997 85.36629 17498 ft 386 kts 102°
2026-04-23 01:38 27.75925 85.39440 17631 ft 400 kts 126°
2026-04-23 01:39 27.73911 85.41673 17757 ft 412 kts 142°
2026-04-23 01:39 27.71600 85.43674 17889 ft 425 kts 143°
2026-04-23 01:39 27.69199 85.45666 18192 ft 431 kts 144°
2026-04-23 01:39 27.66838 85.47764 18563 ft 434 kts 137°
2026-04-23 01:40 27.64827 85.50311 18932 ft 436 kts 125°
2026-04-23 01:40 27.63329 85.53279 19313 ft 438 kts 112°
2026-04-23 01:40 27.62339 85.56556 19456 ft 446 kts 105°
2026-04-23 01:40 27.61470 85.59934 19700 ft 451 kts 105°
2026-04-23 01:41 27.60584 85.63333 20020 ft 454 kts 105°
2026-04-23 01:41 27.59679 85.66756 20370 ft 456 kts 106°
2026-04-23 01:41 27.58626 85.70140 20694 ft 459 kts 113°
2026-04-23 01:41 27.57100 85.73314 21029 ft 462 kts 123°
2026-04-23 01:42 27.55155 85.76143 21355 ft 465 kts 131°
2026-04-23 01:42 27.52779 85.78705 21661 ft 468 kts 137°
2026-04-23 01:42 27.50346 85.81143 21969 ft 470 kts 137°
2026-04-23 01:42 27.47901 85.83598 22307 ft 472 kts 137°
2026-04-23 01:43 27.45441 85.86069 22635 ft 474 kts 137°
2026-04-23 01:43 27.42974 85.88543 22952 ft 476 kts 137°
2026-04-23 01:43 27.40486 85.91036 23269 ft 478 kts 137°
2026-04-23 01:43 27.37999 85.93524 23572 ft 480 kts 137°
2026-04-23 01:44 27.35499 85.96022 23844 ft 482 kts 137°
2026-04-23 01:44 27.32985 85.98532 24105 ft 484 kts 137°
2026-04-23 01:44 27.30462 86.01050 24365 ft 486 kts 137°
2026-04-23 01:44 27.27932 86.03575 24597 ft 488 kts 137°
2026-04-23 01:45 27.25386 86.06114 24837 ft 490 kts 137°
2026-04-23 01:45 27.22831 86.08656 25191 ft 489 kts 137°
2026-04-23 01:45 27.20383 86.11201 25556 ft 487 kts 133°
2026-04-23 01:45 27.18219 86.14122 25920 ft 485 kts 124°
2026-04-23 01:46 27.16296 86.17228 26238 ft 485 kts 123°
2026-04-23 01:46 27.14367 86.20343 26588 ft 485 kts 123°
2026-04-23 01:46 27.12439 86.23444 26935 ft 485 kts 124°
2026-04-23 01:46 27.10505 86.26545 27282 ft 484 kts 124°
2026-04-23 01:47 27.08573 86.29638 27657 ft 483 kts 124°
2026-04-23 01:47 27.06645 86.32726 28032 ft 483 kts 124°
2026-04-23 01:47 27.04720 86.35813 28376 ft 483 kts 124°
2026-04-23 01:47 27.02796 86.38900 28762 ft 483 kts 124°
2026-04-23 01:48 27.00868 86.41992 29133 ft 483 kts 124°
2026-04-23 01:48 26.98942 86.45074 29506 ft 483 kts 124°
2026-04-23 01:48 26.97013 86.48157 29886 ft 482 kts 124°
2026-04-23 01:48 26.95087 86.51230 30219 ft 482 kts 124°
2026-04-23 01:49 26.93160 86.54302 30505 ft 483 kts 124°
2026-04-23 01:49 26.91226 86.57385 30809 ft 483 kts 124°
2026-04-23 01:49 26.89296 86.60463 31171 ft 481 kts 124°
2026-04-23 01:49 26.87373 86.63532 31485 ft 481 kts 124°
2026-04-23 01:50 26.85446 86.66605 31776 ft 482 kts 124°
2026-04-23 01:50 26.83516 86.69672 32030 ft 483 kts 124°
2026-04-23 01:50 26.81563 86.72759 32198 ft 486 kts 126°
2026-04-23 01:50 26.79602 86.75844 32418 ft 488 kts 126°
2026-04-23 01:51 26.77632 86.78938 32673 ft 489 kts 126°
2026-04-23 01:51 26.75679 86.82007 32952 ft 490 kts 126°
2026-04-23 01:51 26.73700 86.85116 33223 ft 491 kts 126°
2026-04-23 01:51 26.71716 86.88233 33504 ft 492 kts 126°
2026-04-23 01:52 26.69731 86.91351 33760 ft 492 kts 126°
2026-04-23 01:52 26.67744 86.94474 34012 ft 493 kts 127°
2026-04-23 01:52 26.65755 86.97598 34244 ft 495 kts 127°
2026-04-23 01:52 26.63759 87.00733 34424 ft 496 kts 127°
2026-04-23 01:53 26.61755 87.03877 34624 ft 498 kts 128°
2026-04-23 01:53 26.59738 87.07035 34811 ft 499 kts 128°
2026-04-23 01:53 26.55667 87.13396 34869 ft 507 kts 128°
2026-04-23 01:54 26.51515 87.19770 34874 ft 508 kts 134°
2026-04-23 01:54 26.46349 87.25003 34856 ft 498 kts 152°
2026-04-23 01:55 26.40223 87.28334 34858 ft 487 kts 166°
2026-04-23 01:55 26.33871 87.30966 34843 ft 486 kts 167°
2026-04-23 01:56 26.27451 87.33262 34847 ft 483 kts 170°
2026-04-23 01:56 26.20997 87.35344 34816 ft 483 kts 171°
2026-04-23 01:57 26.14550 87.37463 34831 ft 484 kts 170°
2026-04-23 01:57 26.08120 87.39657 34815 ft 484 kts 169°
2026-04-23 01:58 26.01684 87.41885 34825 ft 483 kts 169°
2026-04-23 01:58 25.95268 87.44082 34812 ft 483 kts 170°
2026-04-23 01:59 25.88840 87.46262 34793 ft 483 kts 171°
2026-04-23 01:59 25.82464 87.48422 34796 ft 483 kts 171°
2026-04-23 02:00 25.76038 87.50599 34801 ft 482 kts 171°
2026-04-23 02:00 25.69596 87.52773 34806 ft 488 kts 171°
2026-04-23 02:01 25.63074 87.55158 34804 ft 503 kts 162°
2026-04-23 02:01 25.59969 87.57014 34798 ft 514 kts 154°
2026-04-23 02:01 25.57086 87.59415 34798 ft 522 kts 148°
2026-04-23 02:02 25.51433 87.64469 34802 ft 522 kts 148°
2026-04-23 02:02 25.45774 87.69495 34795 ft 522 kts 148°
2026-04-23 02:03 25.40105 87.74521 34797 ft 522 kts 148°
2026-04-23 02:03 25.34432 87.79551 34794 ft 523 kts 148°
2026-04-23 02:04 25.28750 87.84588 34795 ft 524 kts 148°
2026-04-23 02:04 25.23066 87.89622 34798 ft 524 kts 148°
2026-04-23 02:05 25.17368 87.94663 34802 ft 524 kts 148°
2026-04-23 02:05 25.11673 87.99687 34808 ft 524 kts 148°
2026-04-23 02:06 25.06930 88.03864 34816 ft 524 kts 148°
2026-04-23 02:06 25.01226 88.08877 34819 ft 524 kts 149°
2026-04-23 02:07 24.94588 88.14709 34794 ft 526 kts 149°
2026-04-23 02:07 24.89792 88.18920 34806 ft 527 kts 149°
2026-04-23 02:08 24.84124 88.24075 34805 ft 530 kts 147°
2026-04-23 02:08 24.78537 88.29372 34811 ft 530 kts 146°
2026-04-23 02:09 24.72938 88.34662 34818 ft 530 kts 147°
2026-04-23 02:09 24.67343 88.39856 34799 ft 530 kts 148°
2026-04-23 02:10 24.61707 88.45051 34811 ft 529 kts 148°
2026-04-23 02:10 24.56062 88.50263 34808 ft 530 kts 148°
2026-04-23 02:11 24.50424 88.55486 34799 ft 530 kts 148°
2026-04-23 02:11 24.45153 88.61239 34801 ft 544 kts 133°
2026-04-23 02:12 24.41508 88.68620 34802 ft 559 kts 114°
2026-04-23 02:12 24.38845 88.76627 34802 ft 559 kts 114°
2026-04-23 02:13 24.36154 88.84644 34784 ft 560 kts 114°
2026-04-23 02:13 24.34806 88.88639 34491 ft 559 kts 114°
2026-04-23 02:13 24.33455 88.92638 33191 ft 560 kts 113°
2026-04-23 02:14 24.32102 88.96638 31883 ft 555 kts 112°
2026-04-23 02:14 24.30774 89.00572 30781 ft 545 kts 112°
2026-04-23 02:14 24.29470 89.04434 29607 ft 535 kts 111°
2026-04-23 02:14 24.28182 89.08240 28099 ft 527 kts 111°
2026-04-23 02:15 24.25656 89.15697 24786 ft 517 kts 109°
2026-04-23 02:15 24.24407 89.19376 23221 ft 516 kts 109°
2026-04-23 02:15 24.23191 89.22948 22473 ft 490 kts 109°
2026-04-23 02:16 24.22016 89.26387 21161 ft 480 kts 109°
2026-04-23 02:16 24.20838 89.29832 20408 ft 486 kts 109°
2026-04-23 02:16 24.19658 89.33288 19535 ft 483 kts 109°
2026-04-23 02:16 24.18484 89.36729 18958 ft 474 kts 109°
2026-04-23 02:17 24.17348 89.40058 17691 ft 464 kts 109°
2026-04-23 02:17 24.16224 89.43365 16893 ft 465 kts 109°
2026-04-23 02:17 24.15095 89.46686 16104 ft 463 kts 109°
2026-04-23 02:17 24.13971 89.49979 15338 ft 463 kts 109°
2026-04-23 02:18 24.12848 89.53260 14728 ft 457 kts 109°
2026-04-23 02:18 24.11739 89.56500 14034 ft 453 kts 109°
2026-04-23 02:18 24.10616 89.59713 13255 ft 450 kts 109°
2026-04-23 02:18 24.09469 89.62899 12426 ft 449 kts 110°
2026-04-23 02:19 24.08312 89.66056 11783 ft 446 kts 111°
2026-04-23 02:19 24.07154 89.69202 11322 ft 444 kts 111°
2026-04-23 02:19 24.06004 89.72335 11127 ft 445 kts 111°
2026-04-23 02:19 24.04853 89.75482 11057 ft 446 kts 111°
2026-04-23 02:20 24.03703 89.78645 11042 ft 447 kts 111°
2026-04-23 02:20 24.02559 89.81796 11026 ft 436 kts 111°
2026-04-23 02:20 24.01484 89.84756 10763 ft 404 kts 111°
2026-04-23 02:20 24.00486 89.87508 10587 ft 373 kts 111°
2026-04-23 02:21 23.99561 89.90053 10467 ft 347 kts 111°
2026-04-23 02:21 23.98693 89.92443 10097 ft 333 kts 111°
2026-04-23 02:21 23.97846 89.94781 9532 ft 328 kts 111°
2026-04-23 02:21 23.97002 89.97103 9075 ft 327 kts 112°
2026-04-23 02:22 23.96173 89.99390 8767 ft 323 kts 111°
2026-04-23 02:22 23.95390 90.01684 8414 ft 320 kts 110°
2026-04-23 02:22 23.94655 90.03936 8057 ft 318 kts 110°
2026-04-23 02:22 23.93922 90.06224 7594 ft 312 kts 110°
2026-04-23 02:23 23.93218 90.08425 6982 ft 308 kts 110°
2026-04-23 02:23 23.92513 90.10618 6398 ft 304 kts 111°
2026-04-23 02:23 23.91812 90.12780 5793 ft 299 kts 111°
2026-04-23 02:23 23.91123 90.14896 5212 ft 293 kts 111°
2026-04-23 02:24 23.90442 90.16978 4723 ft 286 kts 112°
2026-04-23 02:24 23.89893 90.19048 4231 ft 284 kts 95°
2026-04-23 02:24 23.90280 90.21152 3792 ft 286 kts 60°
2026-04-23 02:24 23.91643 90.22679 3373 ft 285 kts 32°
2026-04-23 02:25 23.93430 90.23616 3046 ft 279 kts 24°
2026-04-23 02:25 23.95117 90.24544 2954 ft 264 kts 33°
2026-04-23 02:25 23.96359 90.25929 2763 ft 248 kts 64°
2026-04-23 02:25 23.96816 90.27623 2710 ft 221 kts 91°
2026-04-23 02:26 23.96609 90.29204 2605 ft 202 kts 114°
2026-04-23 02:26 23.95928 90.30456 2423 ft 185 kts 134°
2026-04-23 02:26 23.94964 90.31327 2214 ft 178 kts 145°
2026-04-23 02:26 23.94013 90.32085 2019 ft 159 kts 145°
2026-04-23 02:27 23.93164 90.32760 1804 ft 144 kts 144°
2026-04-23 02:27 23.92369 90.33392 1637 ft 140 kts 145°
2026-04-23 02:27 23.91590 90.34012 1452 ft 136 kts 145°
2026-04-23 02:27 23.90828 90.34617 1280 ft 136 kts 146°
2026-04-23 02:28 23.90061 90.35227 1109 ft 135 kts 145°
2026-04-23 02:28 23.89306 90.35828 946 ft 136 kts 145°
2026-04-23 02:28 23.88541 90.36435 784 ft 137 kts 145°
2026-04-23 02:28 23.87768 90.37048 594 ft 137 kts 144°
2026-04-23 02:29 23.86986 90.37671 408 ft 139 kts 143°
2026-04-23 02:29 23.86206 90.38291 257 ft 137 kts 144°
2026-04-23 02:29 23.85449 90.38899 70 ft 136 kts 143°
2026-04-23 02:29 23.84740 90.39462 37 ft 96 kts 144°
2026-04-23 02:30 23.84510 90.39644 35 ft 18 kts 138°
2026-04-23 02:30 23.84433 90.39767 35 ft 21 kts 116°
2026-04-23 02:30 23.84411 90.39875 36 ft 13 kts 84°
2026-04-23 02:30 23.84453 90.39960 36 ft 12 kts 55°
2026-04-23 02:31 23.84501 90.40032 36 ft 11 kts 53°
2026-04-23 02:31 23.84562 90.40122 36 ft 17 kts 53°
2026-04-23 02:31 23.84634 90.40228 36 ft 18 kts 53°
2026-04-23 02:31 23.84685 90.40330 36 ft 13 kts 99°
2026-04-23 02:32 23.84648 90.40387 36 ft 7 kts 116°
2026-04-23 02:32 23.84656 90.40433 36 ft 6 kts 62°
2026-04-23 02:32 23.84676 90.40466 36 ft 5 kts 56°
2026-04-23 02:32 23.84681 90.40472 36 ft 0 kts 55°